GW6613 Weather Reports


time (UTC)temp
C
wind
direction
speed
KPH
gust
KPH
rain 1hr
cm
rain 24hr
cm
rain mn
cm
humidity
%
barometer
mb
20260506143035 20 360 1.6 12.9 0.00 0.00 0.00 54 1007.4
20260506143012 10 291 3.2 6.4 0.00 2.64 1.42 81 1012.0
20260506142531 20 221 3.2 12.9 0.00 0.00 0.00 54 1007.4
20260506142506 10 297 0.0 6.4 0.00 2.64 1.42 84 1012.1
20260506142033 20 176 1.6 4.8 0.00 0.00 0.00 54 1007.4
20260506142011 9 304 3.2 6.4 0.00 2.64 1.42 80 1012.1
20260506141516 9 293 1.6 4.8 0.00 2.64 1.42 84 1011.9
20260506141034 20 245 1.6 8.0 0.00 0.00 0.00 54 1007.5
20260506141009 9 296 1.6 4.8 0.00 2.64 1.42 86 1012.0
20260506140534 20 164 1.6 6.4 0.00 0.00 0.00 54 1007.5
20260506140503 9 304 1.6 4.8 0.00 2.64 1.42 83 1011.8
20260506140031 20 180 0.0 6.4 0.00 0.00 0.00 54 1007.3
20260506140005 9 301 0.0 4.8 0.00 2.64 1.42 86 1011.9
20260506135529 20 360 0.0 8.0 0.00 0.00 0.00 55 1007.5
20260506135504 8 301 3.2 4.8 0.00 2.64 1.42 87 1011.6
20260506135031 20 360 3.2 8.0 0.00 0.00 0.00 54 1007.6
20260506135003 8 290 0.0 3.2 0.00 2.64 1.42 89 1011.7
20260506134528 20 360 1.6 11.3 0.00 0.00 0.00 55 1007.6
20260506134505 8 290 0.0 4.8 0.00 2.64 1.42 88 1011.8
20260506134037 8 297 1.6 4.8 0.00 2.64 1.42 85 1011.9
20260506134031 20 360 0.0 11.3 0.00 0.00 0.00 55 1007.5
20260506133531 20 360 0.0 12.9 0.00 0.00 0.00 55 1007.6
20260506133507 8 296 0.0 3.2 0.00 2.64 1.42 89 1012.0
20260506133029 20 360 3.2 12.9 0.00 0.00 0.00 54 1007.7
20260506133012 8 296 0.0 3.2 0.00 2.64 1.42 90 1011.8
20260506132529 20 360 3.2 8.0 0.00 0.00 0.00 55 1007.6
20260506132509 8 296 0.0 4.8 0.00 2.64 1.42 89 1011.8
20260506132032 20 360 1.6 8.0 0.00 0.00 0.00 56 1007.5
20260506132006 8 296 3.2 4.8 0.00 2.64 1.42 89 1011.8
20260506131534 8 295 0.0 3.2 0.00 2.64 1.42 91 1011.4
20260506131028 19 197 3.2 11.3 0.00 0.00 0.00 57 1007.7
20260506131002 7 293 0.0 3.2 0.00 2.64 1.42 91 1011.3
20260506130528 18 169 3.2 11.3 0.00 0.00 0.00 57 1007.8
20260506130503 7 293 1.6 3.2 0.00 2.64 1.42 91 1011.3
20260506130027 18 360 0.0 8.0 0.00 0.00 0.00 58 1007.6
20260506130003 7 286 1.6 3.2 0.00 2.64 1.42 91 1011.1
20260506125528 18 360 1.6 9.7 0.00 0.00 0.00 58 1007.5
20260506125502 7 300 0.0 3.2 0.00 2.64 1.42 92 1011.1
20260506125027 18 360 1.6 9.7 0.00 0.00 0.00 57 1007.4
20260506125003 7 300 0.0 4.8 0.00 2.64 1.42 91 1011.2
20260506124527 18 360 0.0 12.9 0.00 0.00 0.00 58 1007.3
20260506124503 7 300 1.6 4.8 0.00 2.64 1.42 91 1011.4
20260506124027 18 172 3.2 12.9 0.00 0.00 0.00 58 1007.4
20260506124004 7 281 0.0 3.2 0.00 2.64 1.42 93 1011.3
20260506123527 18 184 0.0 12.9 0.00 0.00 0.00 59 1007.2
20260506123505 7 281 1.6 4.8 0.00 2.64 1.42 92 1011.3
20260506123030 18 191 1.6 6.4 0.00 0.00 0.00 58 1007.3
20260506123006 7 293 1.6 4.8 0.00 2.64 1.42 92 1011.4
20260506122526 18 197 0.0 6.4 0.00 0.00 0.00 59 1007.4
20260506122504 7 293 0.0 1.6 0.00 2.64 1.42 93 1011.4
20260506122026 18 191 0.0 6.4 0.00 0.00 0.00 58 1007.4
20260506122004 7 293 0.0 3.2 0.00 2.64 1.42 93 1011.4
20260506121509 7 293 0.0 3.2 0.00 2.64 1.42 94 1011.1
20260506121026 18 186 0.0 8.0 0.00 0.00 0.00 59 1007.7
20260506121010 7 293 0.0 1.6 0.00 2.64 1.42 94 1010.9
20260506120525 18 154 3.2 9.7 0.00 0.00 0.00 59 1007.7
20260506120509 7 292 0.0 1.6 0.00 2.64 1.42 95 1011.0
20260506120038 18 360 0.0 8.0 0.00 0.00 0.00 59 1007.6
20260506120019 7 292 0.0 1.6 0.00 2.64 1.42 94 1010.8
20260506115525 18 360 1.6 9.7 0.00 0.00 0.00 58 1007.8
20260506115507 7 292 0.0 1.6 0.00 2.64 1.42 94 1010.6
20260506115025 18 360 3.2 9.7 0.00 0.00 0.00 58 1007.8
20260506115003 6 292 0.0 1.6 0.00 2.64 1.42 94 1010.7
20260506114524 18 360 1.6 9.7 0.00 0.00 0.00 59 1007.8
20260506114503 6 292 0.0 1.6 0.00 2.64 1.42 94 1010.6
20260506114025 18 360 1.6 8.0 0.00 0.00 0.00 59 1007.9
20260506114003 6 292 0.0 1.6 0.00 2.64 1.42 94 1010.3
20260506113525 18 214 1.6 8.0 0.00 0.00 0.00 59 1007.8
20260506113504 6 292 0.0 1.6 0.00 2.64 1.42 94 1010.1
20260506113030 18 195 0.0 8.0 0.00 0.00 0.00 59 1007.9
20260506113006 6 292 0.0 1.6 0.00 2.64 1.42 94 1009.9
20260506112527 18 165 3.2 11.3 0.00 0.00 0.00 60 1007.8
20260506112505 6 292 0.0 1.6 0.00 2.64 1.42 94 1009.9
20260506112024 18 360 1.6 11.3 0.00 0.00 0.00 60 1007.8
20260506112003 6 292 0.0 3.2 0.00 2.64 1.42 95 1010.4
20260506111841 6 292 1.6 3.2 0.00 2.64 1.42 94 1010.0
20260506111023 17 360 3.2 11.3 0.00 0.00 0.00 60 1007.8
20260506111004 6 292 0.0 1.6 0.00 2.64 1.42 94 1009.6
20260506110523 17 360 1.6 8.0 0.00 0.00 0.00 61 1007.8
20260506110506 6 292 0.0 1.6 0.00 2.64 1.42 94 1009.8
20260506110024 17 360 0.0 8.0 0.00 0.00 0.00 61 1007.6
20260506110012 6 292 0.0 1.6 0.00 2.64 1.42 94 1009.7
20260506105525 17 203 1.6 6.4 0.00 0.03 0.00 61 1007.6
20260506105508 6 292 0.0 3.2 0.00 2.64 1.42 94 1009.6
20260506105023 17 360 0.0 6.4 0.00 0.03 0.00 61 1007.5
20260506105007 6 292 0.0 4.8 0.00 2.64 1.42 94 1009.6
20260506104522 17 205 1.6 6.4 0.00 0.03 0.00 61 1007.5
20260506104519 6 293 1.6 4.8 0.00 2.64 1.42 94 1009.4
20260506104023 17 194 0.0 8.0 0.00 0.03 0.00 61 1007.6
20260506104006 6 293 0.0 3.2 0.00 2.64 1.42 94 1009.0
20260506103522 17 225 1.6 8.0 0.00 0.03 0.00 61 1007.8
20260506103502 6 292 0.0 3.2 0.00 2.64 1.42 94 1009.1
20260506103024 17 193 1.6 8.0 0.00 0.03 0.00 61 1007.7
20260506103003 6 292 0.0 3.2 0.00 2.64 1.42 95 1009.2
20260506102829 6 292 1.6 3.2 0.00 2.67 1.42 94 1009.3
20260506102522 17 187 0.0 11.3 0.00 0.03 0.00 61 1007.7
20260506102021 17 173 0.0 11.3 0.00 0.03 0.00 62 1007.6
20260506102005 6 292 1.6 3.2 0.00 2.67 1.42 94 1009.0
20260506101525 6 292 1.6 3.2 0.00 2.72 1.42 94 1009.1
20260506101410 6 290 1.6 3.2 0.00 2.74 1.42 94 1009.0
20260506101027 17 212 1.6 8.0 0.00 0.03 0.00 62 1007.5
20260506100526 17 198 0.0 6.4 0.00 0.03 0.00 62 1007.5
20260506100511 6 291 0.0 3.2 0.00 2.77 1.42 94 1009.0
20260506100021 17 164 1.6 9.7 0.00 0.03 0.00 62 1007.4
20260506100012 6 290 1.6 3.2 0.00 2.79 1.42 95 1008.8
20260506095811 6 290 0.0 3.2 0.00 2.82 1.42 94 1008.6
20260506095521 17 210 0.0 8.0 0.00 0.03 0.00 62 1007.4
20260506095305 6 290 1.6 3.2 0.03 2.82 1.42 94 1008.7
20260506095022 17 196 1.6 8.0 0.00 0.03 0.00 63 1007.3
20260506094521 17 184 0.0 4.8 0.00 0.03 0.00 63 1007.3
20260506094512 6 290 0.0 1.6 0.03 2.82 1.42 94 1008.7
20260506094021 17 196 0.0 4.8 0.00 0.03 0.00 63 1007.2
20260506094009 6 290 0.0 1.6 0.03 2.82 1.42 95 1008.7
20260506093522 17 197 1.6 6.4 0.00 0.03 0.00 63 1007.4
20260506093507 6 290 0.0 1.6 0.03 2.82 1.42 95 1008.7
20260506093020 17 200 1.6 6.4 0.00 0.03 0.00 63 1007.4
20260506092520 17 178 0.0 4.8 0.00 0.03 0.00 63 1007.3
20260506092512 6 290 1.6 3.2 0.03 2.82 1.42 94 1009.0
20260506092020 17 168 0.0 3.2 0.00 0.03 0.00 63 1007.4
20260506092003 6 290 0.0 3.2 0.03 2.82 1.42 95 1008.7
20260506091512 6 290 0.0 3.2 0.05 2.82 1.42 95 1008.7
20260506091019 17 188 0.0 4.8 0.00 0.03 0.00 63 1007.4
20260506091011 6 288 0.0 3.2 0.05 2.82 1.42 94 1008.5
20260506090519 17 200 0.0 4.8 0.00 0.03 0.00 62 1007.6
20260506090503 6 286 0.0 4.8 0.08 2.82 1.42 95 1008.4
20260506090024 17 205 0.0 3.2 0.00 0.03 0.00 62 1007.6
20260506090006 6 286 0.0 4.8 0.08 2.82 1.42 94 1008.2
20260506085519 17 207 0.0 4.8 0.00 0.03 0.00 62 1007.6
20260506085508 6 288 1.6 6.4 0.08 2.82 1.42 94 1008.1
20260506085017 17 209 0.0 3.2 0.00 0.03 0.00 62 1007.5
20260506085004 6 292 1.6 6.4 0.05 2.79 1.40 94 1008.1
20260506084520 17 207 0.0 4.8 0.00 0.03 0.00 62 1007.7
20260506084510 7 308 1.6 6.4 0.05 2.79 1.40 95 1008.1
20260506084016 17 209 0.0 4.8 0.00 0.03 0.00 62 1007.6
20260506084007 7 300 1.6 6.4 0.05 2.79 1.40 95 1008.2
20260506083516 17 161 0.0 4.8 0.00 0.03 0.00 61 1007.6
20260506083505 7 290 1.6 6.4 0.05 2.79 1.40 95 1008.3
20260506083018 7 288 3.2 6.4 0.05 2.79 1.40 95 1008.2
20260506083016 17 162 0.0 3.2 0.00 0.03 0.00 61 1007.6
20260506082514 17 162 0.0 1.6 0.00 0.03 0.00 61 1007.5
20260506082509 7 301 1.6 6.4 0.05 2.79 1.40 95 1008.2
20260506082014 17 160 0.0 6.4 0.00 0.03 0.00 61 1007.5
20260506082010 7 301 1.6 4.8 0.08 2.79 1.40 95 1007.7
20260506081522 7 311 0.0 4.8 0.08 2.77 1.37 95 1007.7
20260506081014 17 200 0.0 1.6 0.00 0.03 0.00 60 1007.5
20260506081007 7 305 1.6 4.8 0.10 2.77 1.37 95 1007.5
20260506080513 17 199 0.0 3.2 0.00 0.03 0.00 60 1007.5
20260506080504 7 307 1.6 6.4 0.10 2.74 1.32 95 1007.5
20260506073511 18 194 0.0 6.4 0.00 0.03 0.00 59 1007.7
20260506073506 8 271 1.6 3.2 0.38 2.74 1.32 95 1007.4
20260506073012 8 295 1.6 8.0 0.41 2.74 1.32 95 1007.2
20260506073010 18 189 0.0 4.8 0.00 0.03 0.00 59 1007.7
20260506072513 18 210 0.0 8.0 0.00 0.03 0.00 58 1007.7
20260506072508 8 309 4.8 12.9 0.46 2.74 1.32 95 1007.3
20260506072011 8 301 1.6 12.9 0.46 2.72 1.32 95 1007.2
20260506072008 18 213 0.0 8.0 0.00 0.03 0.00 58 1007.7
20260506071520 8 308 1.6 4.8 0.51 2.67 1.30 95 1007.3
20260506071009 8 298 0.0 6.4 0.53 2.64 1.27 95 1007.6
20260506070512 8 286 1.6 6.4 0.53 2.64 1.24 95 1007.6
20260506070508 18 192 0.0 4.8 0.00 0.03 0.00 57 1007.8
20260506062505 9 300 3.2 6.4 0.56 2.29 0.89 95 1006.6
20260506062008 9 304 0.0 6.4 0.56 2.26 0.86 95 1006.5
20260506062004 18 155 0.0 4.8 0.00 0.03 0.00 55 1007.9
20260506061517 9 297 1.6 4.8 0.51 2.18 0.79 94 1006.6
20260506061007 10 309 3.2 4.8 0.48 2.13 0.74 94 1006.6
20260506061004 18 175 0.0 4.8 0.00 0.03 0.00 54 1007.9
20260506060506 10 291 1.6 4.8 0.46 2.11 0.71 94 1006.4
20260506060504 18 190 0.0 4.8 0.00 0.03 0.00 54 1007.9
20260506051058 19 360 0.0 6.4 0.00 0.03 0.00 51 1008.5
20260506051006 14 77 0.0 4.8 0.20 1.65 0.25 94 1006.1
20260506050600 19 155 0.0 4.8 0.00 0.03 0.00 51 1008.7
20260506050506 14 146 1.6 12.9 0.23 1.65 0.25 94 1006.0
20260506050110 19 155 0.0 11.3 0.00 0.03 0.00 51 1008.7
20260506045055 19 142 0.0 3.2 0.00 0.03 0.00 50 1008.6
20260506045003 14 108 4.8 16.1 0.10 1.47 0.10 95 1005.9
20260506044556 20 141 0.0 8.0 0.00 0.03 0.00 50 1008.6
20260506044504 14 122 0.0 8.0 0.10 1.47 0.10 95 1005.9
20260506044055 20 188 0.0 8.0 0.00 0.03 0.00 50 1008.6
20260506044003 14 274 0.0 4.8 0.10 1.47 0.10 95 1006.0
20260506043555 20 178 1.6 6.4 0.00 0.03 0.00 49 1008.6
20260506043506 14 141 0.0 4.8 0.10 1.47 0.10 95 1006.0
20260506043101 20 165 0.0 4.8 0.00 0.03 0.00 49 1008.5
20260506043006 14 137 0.0 4.8 0.10 1.47 0.10 95 1006.0
20260506042554 20 163 0.0 6.4 0.00 0.03 0.00 49 1008.6
20260506042504 14 125 0.0 4.8 0.08 1.47 0.08 95 1006.2
20260506042053 20 179 3.2 11.3 0.00 0.03 0.00 48 1008.6
20260506042004 14 349 0.0 3.2 0.05 1.45 0.05 95 1006.1
20260506041653 20 184 0.0 9.7 0.00 0.03 0.00 49 1008.5
20260506041514 14 146 0.0 1.6 0.05 1.45 0.05 95 1005.9
20260506041052 20 185 0.0 9.7 0.00 0.03 0.00 49 1008.4
20260506041002 14 144 0.0 1.6 0.08 1.45 0.05 95 1006.1
20260506040552 20 222 1.6 9.7 0.00 0.03 0.00 48 1008.4
20260506040506 14 144 0.0 3.2 0.05 1.42 0.03 95 1006.0
20260506040005 14 149 0.0 3.2 0.03 1.40 0.00 95 1005.9
20260506035551 20 170 0.0 6.4 0.00 0.03 0.03 48 1008.4
20260506035505 14 153 0.0 1.6 0.03 1.40 1.40 95 1006.0
20260506035054 20 145 1.6 6.4 0.00 0.03 0.03 48 1008.3
20260506035002 14 153 0.0 1.6 0.03 1.40 1.40 95 1006.0
20260506034556 20 205 1.6 9.7 0.00 0.03 0.03 47 1008.4
20260506034503 14 153 0.0 0.0 0.03 1.40 1.40 95 1006.0
20260506034051 20 203 1.6 8.0 0.00 0.03 0.03 47 1008.4
20260506034004 14 153 0.0 0.0 0.05 1.40 1.40 95 1006.1
20260506033551 20 169 0.0 11.3 0.00 0.03 0.03 47 1008.5
20260506033503 14 153 0.0 0.0 0.05 1.40 1.40 95 1006.1
20260506033051 20 210 1.6 11.3 0.00 0.03 0.03 47 1008.5
20260506033005 14 153 0.0 0.0 0.05 1.40 1.40 95 1006.2
20260506032551 20 132 1.6 8.0 0.00 0.03 0.03 47 1008.5
20260506032503 14 153 0.0 0.0 0.05 1.40 1.40 95 1006.3
20260506032051 20 203 1.6 8.0 0.00 0.03 0.03 46 1008.4
20260506032004 14 153 0.0 0.0 0.05 1.40 1.40 95 1006.4
20260506031652 20 207 1.6 8.0 0.00 0.03 0.03 46 1008.4
20260506031507 14 153 0.0 0.0 0.05 1.40 1.40 95 1006.5
20260506031052 20 208 1.6 8.0 0.00 0.03 0.03 46 1008.4
20260506031005 14 153 0.0 0.0 0.05 1.37 1.37 95 1006.5
20260506030550 20 204 0.0 6.4 0.00 0.03 0.03 46 1008.3
20260506030505 14 153 0.0 0.0 0.08 1.37 1.37 95 1006.5
20260506030054 20 176 1.6 6.4 0.00 0.03 0.03 45 1008.3
20260506030019 14 153 0.0 0.0 0.10 1.37 1.37 95 1006.6
20260506025549 21 157 0.0 9.7 0.00 0.03 0.03 45 1008.3
20260506025507 14 153 0.0 0.0 0.10 1.37 1.37 95 1006.8
20260506025049 21 204 0.0 9.7 0.00 0.03 0.03 45 1008.1
20260506025007 14 215 0.0 0.0 0.13 1.37 1.37 95 1007.0
20260506024556 21 229 1.6 9.7 0.00 0.03 0.03 44 1008.2
20260506024510 14 215 0.0 0.0 0.15 1.37 1.37 95 1006.8
20260506024049 21 207 0.0 4.8 0.00 0.03 0.03 44 1008.2
20260506024002 14 215 0.0 0.0 0.15 1.32 1.32 95 1006.4
20260506023549 21 150 0.0 9.7 0.00 0.03 0.03 43 1008.2
20260506023501 15 215 0.0 1.6 0.15 1.32 1.32 95 1006.7
20260506023050 21 142 1.6 9.7 0.00 0.03 0.03 42 1008.3
20260506023003 15 215 0.0 1.6 0.15 1.32 1.32 95 1007.2
20260506022548 21 167 1.6 8.0 0.00 0.03 0.03 42 1008.1
20260506022503 15 215 0.0 0.0 0.18 1.32 1.32 94 1007.3
20260506022047 22 204 1.6 8.0 0.00 0.03 0.03 41 1008.1
20260506022003 15 215 0.0 0.0 0.18 1.32 1.32 94 1007.2
20260506021650 22 196 0.0 9.7 0.00 0.03 0.03 39 1008.1
20260506021505 15 215 0.0 0.0 0.23 1.32 1.32 94 1007.2
20260506021052 22 184 0.0 9.7 0.00 0.03 0.03 39 1008.1
20260506021003 15 215 0.0 0.0 0.25 1.32 1.32 94 1007.0
20260506020549 22 193 3.2 12.9 0.00 0.03 0.03 38 1008.2
20260506020505 15 215 0.0 0.0 0.28 1.30 1.30 94 1007.2
20260506020048 22 195 3.2 12.9 0.00 0.03 0.03 37 1007.9
20260506020008 15 215 0.0 0.0 0.28 1.27 1.27 94 1006.9
20260506015552 22 189 1.6 9.7 0.00 0.03 0.03 37 1008.0
20260506015504 15 215 0.0 0.0 0.36 1.27 1.27 94 1007.0
20260506015050 22 194 1.6 8.0 0.00 0.03 0.03 37 1007.9
20260506015005 15 215 0.0 0.0 0.41 1.24 1.24 94 1007.2
20260506014549 22 215 1.6 8.0 0.00 0.03 0.03 36 1007.9
20260506014517 15 215 0.0 0.0 0.38 1.22 1.22 94 1007.2
20260506014048 22 123 1.6 8.0 0.00 0.03 0.03 36 1007.9
20260506014003 15 215 0.0 0.0 0.36 1.19 1.19 94 1007.1
20260506013548 22 185 1.6 8.0 0.00 0.03 0.03 35 1007.8
20260506013509 15 215 0.0 0.0 0.36 1.19 1.19 94 1007.0
20260506013056 23 162 1.6 6.4 0.00 0.03 0.03 34 1007.8
20260506013007 15 215 0.0 0.0 0.36 1.19 1.19 94 1007.1
20260506012548 23 206 0.0 9.7 0.00 0.03 0.03 34 1007.7
20260506012503 15 215 0.0 0.0 0.33 1.17 1.17 94 1006.9
20260506012049 23 219 3.2 9.7 0.00 0.03 0.03 33 1007.6
20260506012003 15 215 0.0 0.0 0.33 1.17 1.17 94 1007.0
20260506011647 23 154 1.6 11.3 0.00 0.03 0.03 32 1007.6
20260506011504 15 215 0.0 1.6 0.28 1.12 1.12 93 1007.0
20260506011046 23 187 0.0 11.3 0.00 0.03 0.03 33 1007.5
20260506011004 15 215 0.0 1.6 0.23 1.07 1.07 93 1006.7
20260506010547 23 172 1.6 11.3 0.00 0.03 0.03 32 1007.6
20260506010504 15 247 0.0 1.6 0.18 1.02 1.02 93 1007.0
20260506010046 23 125 0.0 9.7 0.00 0.03 0.03 33 1007.4
20260506010008 15 247 0.0 1.6 0.15 0.99 0.99 93 1007.1
20260506005547 23 191 1.6 6.4 0.00 0.03 0.03 32 1007.4
20260506005504 15 247 0.0 1.6 0.10 0.91 0.91 92 1006.9
20260506005046 23 170 0.0 11.3 0.00 0.03 0.03 32 1007.3
20260506005004 15 248 0.0 1.6 0.03 0.84 0.84 92 1006.9
20260506004545 23 170 0.0 11.3 0.00 0.03 0.03 31 1007.4
20260506004511 15 147 0.0 1.6 0.03 0.84 0.84 91 1006.6
20260506004046 24 167 1.6 8.0 0.00 0.03 0.03 30 1007.2
20260506004003 15 147 0.0 8.0 0.03 0.84 0.84 91 1006.5
20260506003546 24 203 0.0 9.7 0.00 0.03 0.03 30 1007.1
20260506003509 15 142 0.0 8.0 0.03 0.84 0.84 91 1006.4
20260506003046 24 203 0.0 9.7 0.00 0.03 0.03 30 1007.1
20260506003016 15 144 1.6 8.0 0.03 0.84 0.84 91 1006.4
20260506002545 24 222 1.6 6.4 0.00 0.03 0.03 29 1007.2
20260506002507 15 156 0.0 4.8 0.03 0.84 0.84 91 1006.4
20260506002045 24 299 1.6 8.0 0.00 0.03 0.03 28 1007.1
20260506002007 15 151 0.0 6.4 0.03 0.84 0.84 91 1006.5
20260506001645 24 221 0.0 11.3 0.00 0.03 0.03 27 1006.9
20260506001503 15 142 3.2 6.4 0.05 0.84 0.84 91 1006.5
20260506001048 24 222 3.2 11.3 0.00 0.03 0.03 27 1007.0
20260506001003 15 141 0.0 4.8 0.05 0.84 0.84 91 1006.5
20260506000546 25 186 0.0 8.0 0.00 0.03 0.03 27 1007.0
20260506000504 15 136 1.6 6.4 0.08 0.84 0.84 92 1006.4
20260506000046 25 185 1.6 8.0 0.00 0.03 0.03 25 1007.1
20260506000004 15 133 0.0 6.4 0.08 0.84 0.84 92 1006.3
20260505235546 25 150 1.6 4.8 0.00 0.03 0.03 25 1006.9
20260505235504 15 151 0.0 4.8 0.05 0.81 0.81 92 1006.3
20260505235044 25 195 1.6 6.4 0.00 0.03 0.03 26 1006.8
20260505235004 15 143 0.0 0.0 0.05 0.81 0.81 91 1006.2
20260505234544 25 238 1.6 6.4 0.00 0.03 0.03 25 1006.9
20260505234506 15 143 0.0 1.6 0.05 0.81 0.81 91 1006.3
20260505234045 25 191 1.6 11.3 0.00 0.03 0.03 25 1006.8
20260505234005 15 143 0.0 3.2 0.05 0.81 0.81 91 1006.5
20260505233544 25 153 3.2 11.3 0.00 0.03 0.03 24 1006.7
20260505233504 15 124 0.0 3.2 0.05 0.81 0.81 90 1006.6
20260505233044 25 192 1.6 8.0 0.00 0.03 0.03 24 1006.6
20260505233008 15 143 1.6 4.8 0.05 0.81 0.81 90 1006.5
20260505232543 25 188 0.0 6.4 0.00 0.03 0.03 24 1006.7
20260505232507 16 130 0.0 4.8 0.05 0.81 0.81 90 1006.4
20260505232146 25 188 0.0 6.4 0.00 0.03 0.03 24 1006.7
20260505232005 16 144 3.2 4.8 0.05 0.81 0.81 90 1006.5
20260505231646 25 186 0.0 4.8 0.00 0.03 0.03 24 1006.5
20260505231515 16 138 1.6 6.4 0.03 0.79 0.79 90 1006.8
20260505231043 25 165 0.0 4.8 0.00 0.03 0.03 22 1006.6
20260505231006 16 132 1.6 6.4 0.03 0.79 0.79 90 1006.8
20260505230543 25 126 0.0 9.7 0.00 0.03 0.03 23 1006.4
20260505230507 16 129 0.0 4.8 0.00 0.76 0.76 91 1006.8
20260505230043 25 139 0.0 9.7 0.00 0.03 0.03 22 1006.4
20260505230015 16 138 1.6 8.0 0.00 0.76 0.76 91 1006.9
20260505225544 26 166 1.6 8.0 0.00 0.03 0.03 21 1006.3
20260505225506 16 139 1.6 8.0 0.00 0.76 0.76 91 1006.9
20260505225043 26 165 3.2 8.0 0.00 0.03 0.03 21 1006.2
20260505225005 16 131 0.0 9.7 0.00 0.76 0.76 91 1006.9
20260505224542 26 210 1.6 8.0 0.00 0.03 0.03 21 1006.2
20260505224507 16 166 1.6 9.7 0.00 0.76 0.76 91 1007.0
20260505224045 26 189 1.6 9.7 0.00 0.03 0.03 21 1006.0
20260505224002 16 131 3.2 9.7 0.00 0.76 0.76 91 1007.0
20260505223542 26 210 3.2 8.0 0.00 0.03 0.03 21 1006.0
20260505223505 16 146 3.2 8.0 0.03 0.76 0.76 91 1007.1
20260505223042 26 174 0.0 8.0 0.00 0.03 0.03 21 1006.1
20260505223008 16 135 1.6 8.0 0.03 0.76 0.76 91 1007.2
20260505222541 26 155 1.6 9.7 0.00 0.03 0.03 21 1006.1
20260505222504 16 185 1.6 6.4 0.03 0.76 0.76 91 1007.2
20260505222043 26 262 3.2 9.7 0.00 0.03 0.03 20 1006.0
20260505222008 16 148 1.6 4.8 0.03 0.76 0.76 91 1007.2
20260505221642 26 171 1.6 14.5 0.00 0.03 0.03 21 1005.9
20260505221514 16 131 0.0 8.0 0.03 0.76 0.76 91 1007.4
20260505221042 26 194 1.6 14.5 0.00 0.03 0.03 20 1005.9
20260505221010 16 139 1.6 8.0 0.05 0.76 0.76 91 1007.4
20260505220541 26 140 4.8 14.5 0.00 0.03 0.03 20 1006.0
20260505220508 16 136 3.2 12.9 0.05 0.76 0.76 91 1007.4
20260505220042 26 199 4.8 12.9 0.00 0.03 0.03 20 1005.9
20260505220024 16 136 1.6 12.9 0.05 0.76 0.76 91 1007.6
20260505215541 26 150 4.8 12.9 0.00 0.03 0.03 19 1006.0
20260505215507 16 114 3.2 12.9 0.08 0.76 0.76 91 1007.7
20260505215040 26 162 3.2 14.5 0.00 0.03 0.03 19 1005.8
20260505215007 16 166 1.6 12.9 0.08 0.76 0.76 91 1007.7
20260505214601 26 176 3.2 14.5 0.00 0.03 0.03 20 1005.9
20260505214505 16 148 3.2 12.9 0.08 0.76 0.76 92 1007.7
20260505214039 27 153 3.2 16.1 0.00 0.03 0.03 20 1005.7
20260505214003 16 168 1.6 9.7 0.10 0.76 0.76 92 1007.8
20260505213541 27 195 4.8 16.1 0.00 0.03 0.03 20 1005.7
20260505213502 16 150 1.6 9.7 0.10 0.74 0.74 92 1007.8
20260505213040 27 191 1.6 9.7 0.00 0.03 0.03 22 1005.4
20260505213010 16 118 1.6 6.4 0.13 0.74 0.74 92 1007.8
20260505212539 27 236 1.6 14.5 0.00 0.03 0.03 21 1005.4
20260505212502 16 145 0.0 6.4 0.15 0.74 0.74 92 1007.8
20260505212038 27 274 1.6 19.3 0.00 0.03 0.03 21 1005.7
20260505212007 16 68 1.6 11.3 0.20 0.74 0.74 92 1007.7
20260505211640 27 265 6.4 20.9 0.00 0.03 0.03 20 1005.4
20260505211514 16 198 3.2 11.3 0.23 0.74 0.74 92 1007.9
20260505211040 27 160 4.8 20.9 0.00 0.03 0.03 20 1005.6
20260505211006 16 149 4.8 9.7 0.23 0.71 0.71 92 1008.0
20260505210538 27 204 3.2 19.3 0.00 0.03 0.03 22 1005.4
20260505210506 16 130 1.6 8.0 0.25 0.71 0.71 92 1008.1
20260505210039 27 226 1.6 11.3 0.00 0.03 0.03 23 1005.3
20260505210015 16 146 3.2 8.0 0.28 0.71 0.71 91 1008.0
20260505205538 27 238 3.2 14.5 0.00 0.03 0.03 22 1005.6
20260505205507 16 136 1.6 8.0 0.28 0.69 0.69 91 1008.2
20260505205038 27 111 4.8 11.3 0.00 0.03 0.03 21 1005.7
20260505205014 16 142 1.6 8.0 0.28 0.69 0.69 91 1008.2
20260505204537 27 121 3.2 16.1 0.00 0.03 0.03 20 1005.6
20260505204519 16 131 3.2 6.4 0.30 0.69 0.69 91 1008.1
20260505204036 27 254 3.2 16.1 0.00 0.03 0.03 21 1005.5
20260505204009 16 129 0.0 6.4 0.30 0.66 0.66 91 1008.0
20260505203537 27 122 3.2 17.7 0.00 0.03 0.03 20 1005.6
20260505203508 16 141 1.6 11.3 0.30 0.64 0.64 91 1008.2
20260505203037 27 214 4.8 17.7 0.00 0.03 0.03 22 1005.4
20260505203003 16 111 3.2 11.3 0.33 0.61 0.61 91 1008.2
20260505202536 27 193 3.2 14.5 0.00 0.03 0.03 21 1005.5
20260505202502 16 128 3.2 8.0 0.38 0.58 0.58 91 1008.1
20260505202036 27 185 3.2 14.5 0.00 0.03 0.03 22 1005.7
20260505202001 16 129 1.6 4.8 0.38 0.53 0.53 91 1008.3
20260505201635 27 136 3.2 11.3 0.00 0.03 0.03 21 1005.5
20260505201512 16 128 0.0 4.8 0.36 0.51 0.51 90 1008.3
20260505201034 27 56 1.6 14.5 0.00 0.03 0.03 21 1005.7
20260505201005 16 139 1.6 4.8 0.33 0.48 0.48 90 1008.3
20260505200534 27 188 4.8 14.5 0.00 0.03 0.03 22 1005.7
20260505200506 16 118 0.0 4.8 0.30 0.46 0.46 90 1008.6
20260505200042 27 158 1.6 9.7 0.00 0.03 0.03 23 1005.6
20260505200014 16 137 0.0 4.8 0.28 0.43 0.43 90 1008.6
20260505195537 27 184 3.2 17.7 0.00 0.03 0.03 21 1005.6
20260505195506 16 138 1.6 8.0 0.25 0.41 0.41 89 1008.6
20260505195034 27 171 4.8 19.3 0.00 0.03 0.03 21 1005.8
20260505195006 16 101 0.0 16.1 0.25 0.41 0.41 88 1008.6
20260505194533 27 191 6.4 19.3 0.00 0.03 0.03 20 1005.8
20260505194504 16 141 1.6 16.1 0.23 0.38 0.38 87 1008.7
20260505194032 27 158 4.8 17.7 0.00 0.03 0.03 21 1005.8
20260505194004 16 136 1.6 4.8 0.20 0.36 0.36 86 1008.7
20260505193530 27 202 3.2 22.5 0.00 0.03 0.03 24 1005.9
20260505193501 17 114 0.0 4.8 0.18 0.33 0.33 85 1008.7
20260505193034 27 107 4.8 11.3 0.00 0.03 0.03 25 1006.1
20260505193003 17 135 0.0 8.0 0.13 0.28 0.28 82 1008.6
20260505192530 27 143 3.2 11.3 0.00 0.03 0.03 26 1006.1
20260505192502 18 289 1.6 12.9 0.05 0.20 0.20 78 1008.8
20260505192029 27 152 4.8 17.7 0.00 0.03 0.03 22 1006.2
20260505192003 20 306 3.2 12.9 0.00 0.15 0.15 70 1008.7
20260505191630 27 169 3.2 11.3 0.00 0.03 0.03 23 1006.2
20260505191508 20 101 3.2 11.3 0.00 0.15 0.15 68 1008.3
20260505191028 27 217 3.2 12.9 0.00 0.03 0.03 26 1006.3
20260505191001 20 115 3.2 11.3 0.00 0.15 0.15 67 1008.2
20260505190528 27 183 1.6 12.9 0.00 0.03 0.03 25 1006.4
20260505190503 20 141 3.2 14.5 0.00 0.15 0.15 67 1008.1
20260505190030 27 186 1.6 9.7 0.00 0.03 0.03 23 1006.3
20260505190012 20 226 3.2 14.5 0.00 0.15 0.15 67 1008.3
20260505185527 27 175 3.2 9.7 0.00 0.03 0.03 24 1006.3
20260505185506 20 142 6.4 12.9 0.00 0.15 0.15 66 1008.1
20260505185028 27 139 4.8 9.7 0.00 0.03 0.03 24 1006.4
20260505185006 20 145 3.2 11.3 0.00 0.15 0.15 67 1008.1
20260505184527 27 162 3.2 8.0 0.00 0.03 0.03 25 1006.5
20260505184512 20 58 3.2 11.3 0.00 0.15 0.15 67 1008.2
20260505184025 27 185 3.2 14.5 0.00 0.03 0.03 24 1006.7
20260505184008 20 109 4.8 12.9 0.00 0.15 0.15 67 1008.3
20260505183527 27 142 1.6 14.5 0.00 0.03 0.03 25 1006.7
20260505183506 20 124 4.8 12.9 0.00 0.15 0.15 67 1008.6
20260505183030 27 132 6.4 14.5 0.00 0.03 0.03 23 1006.6
20260505183004 20 155 3.2 12.9 0.00 0.15 0.15 68 1008.5
20260505182524 27 224 1.6 11.3 0.00 0.03 0.03 27 1006.8
20260505182502 20 118 3.2 14.5 0.00 0.15 0.15 68 1008.7
20260505182024 27 271 3.2 12.9 0.00 0.03 0.03 26 1006.7
20260505182002 20 155 4.8 14.5 0.00 0.15 0.15 67 1008.7
20260505181624 27 113 1.6 17.7 0.00 0.03 0.03 27 1006.7
20260505181506 20 326 3.2 12.9 0.00 0.15 0.15 67 1008.7
20260505181023 27 128 3.2 17.7 0.00 0.03 0.03 25 1006.6
20260505181002 20 134 3.2 11.3 0.00 0.15 0.15 66 1008.8
20260505180522 27 230 1.6 11.3 0.00 0.03 0.03 28 1006.8
20260505180504 20 127 3.2 11.3 0.00 0.15 0.15 66 1008.8
20260505180023 27 120 3.2 11.3 0.00 0.03 0.03 27 1006.7
20260505180015 20 121 3.2 12.9 0.00 0.15 0.15 66 1009.0
20260505175520 27 156 3.2 11.3 0.00 0.03 0.03 28 1006.8
20260505175503 20 165 3.2 19.3 0.00 0.15 0.15 66 1009.1
20260505175019 27 194 3.2 11.3 0.00 0.03 0.03 27 1006.8
20260505175003 20 106 1.6 19.3 0.00 0.15 0.15 67 1009.0
20260505174519 27 158 1.6 17.7 0.00 0.03 0.03 30 1006.9
20260505174511 20 7 3.2 14.5 0.00 0.15 0.15 64 1008.9
20260505174019 26 161 6.4 17.7 0.00 0.03 0.03 27 1006.8
20260505174007 20 135 1.6 8.0 0.00 0.15 0.15 67 1008.9
20260505173522 26 195 3.2 8.0 0.00 0.03 0.03 28 1006.9
20260505173506 20 126 3.2 11.3 0.00 0.15 0.15 64 1008.9
20260505173017 26 177 1.6 6.4 0.00 0.03 0.03 32 1006.9
20260505173014 20 20 3.2 14.5 0.00 0.15 0.15 65 1009.1
20260505172515 20 122 3.2 14.5 0.00 0.15 0.15 65 1009.1
20260505172015 26 208 0.0 16.1 0.00 0.03 0.03 31 1007.2
20260505171614 26 174 1.6 11.3 0.00 0.03 0.03 31 1007.6
20260505171505 20 108 3.2 12.9 0.00 0.15 0.15 65 1009.2
20260505171013 26 184 3.2 11.3 0.00 0.03 0.03 30 1007.5
20260505171006 20 147 3.2 16.1 0.00 0.15 0.15 65 1009.2
20260505170512 26 169 3.2 9.7 0.00 0.03 0.03 31 1007.6
20260505170502 20 146 4.8 16.1 0.00 0.15 0.15 65 1009.2
20260505170013 26 157 1.6 9.7 0.00 0.03 0.03 33 1007.5
20260505170005 20 314 1.6 12.9 0.00 0.15 0.15 65 1009.2
20260505165510 26 166 1.6 12.9 0.00 0.03 0.03 32 1007.6
20260505165503 19 34 1.6 12.9 0.00 0.15 0.15 65 1009.1
20260505165009 25 212 4.8 12.9 0.00 0.03 0.03 31 1007.7
20260505165004 19 294 3.2 11.3 0.00 0.15 0.15 66 1009.2
20260505164508 25 132 1.6 9.7 0.00 0.03 0.03 31 1007.6
20260505164009 25 184 0.0 9.7 0.00 0.03 0.03 34 1007.8
20260505164003 19 127 6.4 11.3 0.00 0.15 0.15 64 1009.2
20260505163509 25 184 3.2 9.7 0.00 0.03 0.03 32 1007.8
20260505163504 19 139 1.6 12.9 0.00 0.15 0.15 65 1009.2
20260505163012 19 116 3.2 12.9 0.00 0.15 0.15 64 1009.1
20260505163009 25 245 3.2 6.4 0.00 0.03 0.03 33 1007.9
20260505162506 19 122 3.2 16.1 0.00 0.15 0.15 64 1009.2
20260505162502 25 143 0.0 8.0 0.00 0.03 0.03 35 1007.9
20260505162007 19 131 6.4 16.1 0.00 0.15 0.15 63 1009.2
20260505162002 25 133 1.6 11.3 0.00 0.03 0.03 34 1008.1
20260505161608 25 184 3.2 14.5 0.00 0.03 0.03 34 1008.1
20260505161518 19 130 3.2 14.5 0.00 0.15 0.15 63 1009.2
20260505161006 19 140 4.8 12.9 0.00 0.15 0.15 64 1009.2
20260505161002 25 152 4.8 14.5 0.00 0.03 0.03 34 1008.2
20260505160507 19 144 4.8 11.3 0.00 0.15 0.15 64 1009.2
20260505160504 24 181 1.6 11.3 0.00 0.03 0.03 35 1008.2
20260505153103 23 141 0.0 8.0 0.00 0.03 0.03 40 1008.7
20260505153012 18 145 4.8 12.9 0.00 0.15 0.15 66 1009.1
20260505152556 23 141 3.2 9.7 0.00 0.03 0.03 37 1008.7
20260505152506 18 71 4.8 12.9 0.00 0.15 0.15 68 1009.1
20260505152055 23 210 3.2 8.0 0.00 0.03 0.03 37 1008.7
20260505152008 18 321 1.6 11.3 0.00 0.15 0.15 69 1008.9
20260505151604 23 152 1.6 8.0 0.00 0.03 0.03 39 1008.8
20260505151517 18 131 3.2 14.5 0.00 0.15 0.15 71 1008.9
20260505151054 23 142 1.6 8.0 0.00 0.03 0.03 39 1008.9
20260505151006 18 158 6.4 14.5 0.00 0.15 0.15 70 1008.9
20260505150554 23 158 0.0 9.7 0.00 0.03 0.03 39 1008.8
20260505150507 18 154 3.2 12.9 0.00 0.15 0.15 71 1009.0